Regional Weather Roundup
Issued by NWS Wakefield, VA

Home | Current Version | Previous Version | Graphics & Text | Print | Product List | Glossary On
Versions: 1 2 3 4 5 6 7 8 9 10 11 12 13 14 15 16 17 18 19 20 21 22 23 24 25 26 27
000
ASUS41 KAKQ 161315
RWRAKQ

REGIONAL WEATHER ROUNDUP
NATIONAL WEATHER SERVICE WAKEFIELD VA
800 AM EST TUE JAN 16 2018

Note: "fair" indicates few or no clouds below 12,000 feet with no
significant weather and/or obstructions to visibility. * = Denotes
station may not report precipitation (e.g., rain,snow,etc.),
thunder or fog.

VAZ042-051-052>054-056-161400-
NORTHERN VIRGINIA

CITY           SKY/WX    TMP DP  RH WIND       PRES   REMARKS
WASH NATIONAL  CLOUDY    30  27  88 E5        30.49S
DULLES         MOCLDY    26  25  96 CALM      30.47R
FORT BELVOIR   CLOUDY    29  26  86 CALM      30.48S
QUANTICO       CLOUDY    29  28  96 S5        30.50S
FREDERICKSBRG* CLOUDY    27  27 100 E3        30.48S
STAFFORD*      CLOUDY    27  27 100 SE5       30.51S FOG
WARRENTON      CLOUDY    26  23  89 CALM      30.46R FOG
CULPEPER*      CLOUDY    24  22  91 CALM      30.48R FOG
MANASSAS*      CLOUDY    23  21  92 CALM      30.49R
LEESBURG*      CLOUDY    28  28 100 CALM      30.47R
WINCHESTER       N/A    N/A N/A N/A MISG        N/A
FRONT ROYAL*   CLOUDY    25  19  80 MISG      30.40R
LURAY*         CLOUDY    27  21  80 CALM      30.40R
$$

VAZ048-049-060>072-079>083-161400-
CENTRAL AND SOUTH CENTRAL VIRGINIA

CITY           SKY/WX    TMP DP  RH WIND       PRES   REMARKS
RICHMOND       FOG       26  26 100 SE3       30.47F VSB 1/4
CHESTERFIELD*  NOT AVBL
PETERSBURG*    CLOUDY    25  21  86 SE3       30.48S FOG
HANOVER        FOG       25  24  96 CALM      30.48S VSB 1/2
TAPPAHANNOCK*  CLOUDY    31  29  94 E3        30.48F
QUINTON*       CLOUDY    27  27 100 SE5       30.48S FOG
CHARLOTTSVILLE FAIR      23  17  78 CALM      30.43R
GORDONSVILLE*  FAIR      20  20  98 CALM      30.45R
ORANGE*        FAIR      21  19  93 CALM      30.45R
LOUISA*        MOCLDY    19  17  93 CALM      30.49R
BUMPASS*       CLOUDY   N/A N/A N/A E5        30.46S VSB 3/4
FARMVILLE*     FAIR      18  18 100 CALM      30.44S
CREWE*         FAIR      16  16 100 CALM      30.46R
FORT PICKETT*  FAIR      19  19 100 CALM      30.45R
CHASE CITY*    FAIR      19  19 100 CALM      30.45R
CLARKSVILLE*   FAIR      19  19 100 CALM      30.45R
SOUTH HILL*    FAIR      17  16  97 CALM      30.50F
LAWRENCEVILLE* FAIR      20  19  94 CALM      30.46S
EMPORIA*       CLOUDY    23  23 100 CALM      30.49R FOG
$$

VAZ088>098-161400-
SOUTHEAST VIRGINIA

CITY           SKY/WX    TMP DP  RH WIND       PRES   REMARKS
NORFOLK        FOG       32  32 100 N5        30.48S VSB 1/2
VIRGINIA BEACH FOG       32  30  92 N12       30.47R VSB 1/2 WCI  23
NORFOLK NAVAL  FOG       32  30  92 NW5       30.50R VSB 1/4
WEST POINT*    CLOUDY    31  29  94 E3        30.50S
SALUDA*        CLOUDY    29  29 100 NW3       30.48F VSB 3/4
NEWPORT NEWS   FOG       31  30  96 NE5       30.48F VSB 1/4
LANGLEY AFB    FOG       31  30  99 N3        30.48S VSB 1/8
FORT EUSTIS    CLOUDY    30  29  95 CALM      30.45F FOG
WILLIAMSBURG*  CLOUDY    32  28  86 CALM      30.49S
HR EXEC AP*    MIX PCPN  30  29  96 CALM      30.50S VSB 1/2
FRANKLIN*      CLOUDY    28  28  98 CALM      30.49S FOG
US460-WAKEFLD  CLOUDY    28  27  96 CALM      30.47F FOG
$$

VAZ020-022-025-037-045-161400-
WEST CENTRAL AND SOUTHWEST VIRGINIA

CITY           SKY/WX    TMP DP  RH WIND       PRES   REMARKS
STAUNTON*      FAIR      19  14  78 CALM      30.40S
WAYNESBORO*    FAIR      19  12  74 CALM      30.37R
HOT SPRINGS VA CLOUDY    30  19  63 W16       30.25R WCI  18
LYNCHBURG      FAIR      18  12  77 CALM      30.41R
DANVILLE       FAIR      16  14  92 CALM      30.45R
SOUTH BOSTON*  FAIR      17  14  90 CALM      30.46R
MARTINSVILLE   FAIR      15  12  89 CALM      30.45R
ROANOKE        MOCLDY    22  14  71 CALM      30.41R
BLACKSBURG     FAIR      19  14  81 CALM      30.37S
DUBLIN*        FAIR      22  18  85 CALM      30.35S
MARION*        FAIR      22  16  80 CALM      30.34S
HILLSVILLE*    FAIR      23  14  68 CALM      30.30R
RICHLANDS*     CLOUDY    31  22  68 W7        30.30R
WISE*          CLOUDY    30  28  93 CALM      30.30S
ABINGDON*      CLOUDY    28  25  89 CALM      30.32S
$$

MDZ021>025-VAZ099-100-161400-
SOUTHERN MARYLAND AND THE DELMARVA PENINSULA

CITY           SKY/WX    TMP DP  RH WIND       PRES   REMARKS
PATUXENT RIVER NOT AVBL
BAY BRIDGE APT CLOUDY    30  25  80 CALM      30.49S HAZE
LEONARDTOWN    CLOUDY    30  30 100 CALM      30.49F
DOVER          PTCLDY    27  27 100 NE3       30.48S
GEORGETOWN     FAIR      27  25  92 NW3       30.49R
EASTON         MOCLDY    30  25  80 CALM      30.52F
CAMBRIDGE      CLOUDY    30  25  80 CALM      30.48F
SALISBURY      FAIR      26  25  96 NW5       30.48R FOG
OCEAN CITY     FAIR      29  29 100 NW6       30.48R
WALLOPS ISLAND MOCLDY    29  28  96 NW7       30.48R FOG
ACCOMACK*      FOG       31  31  99 NW7       30.48S VSB 1/2
$$

NCZ012>017-030>032-161400-
NORTH CENTRAL AND EASTERN NORTH CAROLINA

CITY           SKY/WX    TMP DP  RH WIND       PRES   REMARKS
ROANOKE RAPIDS FAIR      21  21 100 CALM      30.47S
RALEIGH        FAIR      22  16  78 CALM      30.45S
ELIZABETH CITY FOG       32  32 100 N8        30.47R VSB 1/4
AHOSKIE*       FOG       26  26 100 CALM      30.48F VSB 1/2
EDENTON*       FOG       31  31  98 N5        30.48S VSB 1/4
CURRITUCK*     FOG       31  31 100 CALM      30.47S VSB 1/4
KILL DEVIL HLS FOG      N/A N/A N/A N7        30.45R VSB 1
MANTEO         FOG       32  32 100 N9        30.47R VSB 1/2
CAPE HATTERAS  NOT AVBL
TARBORO*       NOT AVBL
GOLDSBORO      FAIR      24  20  85 CALM      30.46R
WASHINGTON     FAIR      27  25  91 NW3       30.48R
GREENVILLE     FAIR      27  25  93 CALM      30.47S
NEW BERN       FAIR      29  27  92 NW3       30.48R FOG
WILMINGTON     FAIR      29  26  89 CALM      30.48R
$$

VAZ048-161400-
ELSEWHERE

CITY           SKY/WX    TMP DP  RH WIND       PRES   REMARKS
HARRISBURG PA  LGT SNOW  29  28  96 E3        30.46R
BALTIMORE        N/A     29  28  96 S3        30.47F FOG
ANNAPOLIS      FOG       31  31 100 CALM      30.49S VSB 1/4
ANDREWS AFB    CLOUDY    28  26  94 SE7       30.46S
PHILADELPHIA   FLURRIES  30  25  81 NE5       30.51R
HENDERSON NC   FAIR      17  14  88 CALM      30.44S
GREENSBORO     FAIR      23  13  65 CALM      30.42R
ROCKY MOUNT    FAIR      22  21  96 CALM      30.47S
$$

VAZ100-161400-
MARINE

STATION/POSITION TIME  TEMP    WIND        PRES    WAVE   SWELL
                       AIR SEA DIR/SP/G            HT/PER HT/PER
                 (UTC) (F)     (DEG/KT/KT) (MB)    (FT/S) (FT/S)
BRANDYWINE LGT   1236   32      70/  8/ 10 1032.6R
CAPE MAY NJ      1248   31 33   80/  3/  4 1032.0R
LEWES DE         1248   33 33   50/  3/  3 1032.3R
15NM E FENWICK I 1250   43 42   20/ 10/ 12 1031.8R   6/ 9   7/ 9
OCEAN-CITY-INLET 1248   30 35  360/  7/  7 1032.2R
WACHAPREAGUE VA  1248   30 34  310/  2/  5 1032.0R
THOMAS POINT MD  1300   29 32     CALM       N/A
GOOSES REEF MD   1300   30 33  100/  2/  4 1032.8    0
COVE POINT MD    1248   29      CALM  /  3 1032.8F
SOLOMONS ISLAND  1236   30 34  120/  3/  6 1031.9F
BISHOPS HEAD MD  1248   30 31   10/  2/  4 1032.6F
PINEY POINT MD   1242           90/  3/  5   N/A
POTOMAC MD       1300   30 34  190/  2/  4 1031.7    0
CAMBRIDGE MD     1236   30 31              1033.2F
LEWISETTA VA     1248   30 32   70/  3/  3 1032.3F
RAPPAHANNOCK LGT 1248          360/ 12/ 13 1032.9R
STINGRAY PT      1300   30 34   20/  4/  6 1034.6    1
YORK RVR RNG VA  1248   30     350/  7/  8 1032.9S
YORKTOWN VA      1248   30 35   30/  4/  5 1032.1F
DOMINION TERM VA 1248   31      40/  2/  4 1032.6R
KIPTOPEKE VA     1248      35  340/ 12/ 13   N/A
CAPE HENRY VA    1248          310/ 12/ 14   N/A
WILLOUBY STN VA  1242          340/  4/  5 1032.2R
S CRANEY ISL VA  1248   31      10/  6/  8 1032.2R
CAPE HENRY BUOY  1300      42                N/A     4/10   2/11
1ST LANDING BUOY 1300   31 37  360/ 12/ 14 1032.0    2/ 4
CAPE CHARLES BUO 1251      40                N/A     4/11   2/11
64NM E OF VA BCH 1250   46 65  330/ 16/ 17 1030.3R   7/ 9   5/ 9
DUCK PIER NC     1248   32 38  350/ 14/ 16 1030.8R
44100 DUCK FRF   1245      42                N/A     6/11   3/11
44056 DUCK FRF   1300      39                N/A     5/11   2/11
OREGON INLET NC  1242   34 41  330/  9/ 13 1031.0R
HATTERAS NC      1248   36 44  350/ 12/ 14 1030.5R
DIAMOND SHLS NC  1300   46 66  350/ 14/ 17 1030.4
CAPE LOOKOUT NC  1300          330/  7/  8 1031.5R
$$




USA.gov is the U.S. government's official web portal to all federal, state and local government web resources and services.